sat.trackr.live / text

‹ back to catalog

STARLINK-37225

NORAD 68714 · 2026-081R

PAYLOAD ACTIVE UNKNOWN

§ Identity

Operator
Country
US
Launch date
2026-04-14
Launch site
AFETR
Launch vehicle
Mass (kg)
RCS (m²)

Purposes: comms

External: N2YO · Heavens-Above · Gunter

§ Orbital elements

Epoch: 2026-09-20T03:25:19.559136Z

Period
93.85 min
Inclination
53.1598°
Eccentricity
0.0001259
Mean motion
15.34400414 rev/d
Perigee alt
461.8 km
Apogee alt
463.6 km
Semi-major
6,840.8 km
B*
4.4853e-4
RAAN
207.3937°
Arg perigee
91.1384°
Mean anomaly
268.9763°
Rev number
2,456

§ Raw data

STARLINK-372251 68714U 26081R   26263.14258749  .00014808  00000+0  44853-3 0  99992 68714  53.1598 207.3937 0001259  91.1384 268.9763 15.34400414 24567

JSON: /api/v1/satellites/68714 · /tle

For live sub-satellite position, see the globe view (requires WebGL).

§ Visibility from observer

Set your observer location to see the next 7 days of passes ≥ 10°. The values pass through the URL so the page stays shareable.

No JS? Fill the form by hand. The geolocation button needs JavaScript.